| time (UTC) | temp F | wind direction | speed knots | gust knots | rain 1hr in | rain 24hr in | rain mn in | humidity % | barometer mb |
| 20260510093044 | 62 | 250 | 0.0 | 0.0 | 0.00 | 0.00 | 0.00 | 90 | 1012.5 |
| 20260510091542 | 62 | 250 | 0.0 | 0.0 | 0.00 | 0.00 | 0.00 | 91 | 1012.5 |
| 20260510090041 | 62 | 250 | 0.0 | 0.0 | 0.00 | 0.00 | 0.00 | 91 | 1012.5 |
| 20260510084544 | 62 | 250 | 0.0 | 0.0 | 0.00 | 0.00 | 0.00 | 91 | 1012.5 |
| 20260510083040 | 62 | 250 | 0.0 | 0.0 | 0.00 | 0.00 | 0.00 | 91 | 1012.6 |
| 20260510081541 | 61 | 221 | 0.0 | 0.0 | 0.00 | 0.00 | 0.00 | 91 | 1012.8 |
| 20260510080052 | 61 | 221 | 0.0 | 0.0 | 0.00 | 0.00 | 0.00 | 90 | 1012.9 |
| 20260510074538 | 61 | 194 | 0.0 | 0.0 | 0.00 | 0.00 | 0.00 | 90 | 1013.0 |
| 20260510073041 | 62 | 140 | 0.9 | 4.3 | 0.00 | 0.00 | 0.00 | 91 | 1013.1 |
| 20260510071533 | 61 | 196 | 0.0 | 0.0 | 0.00 | 0.00 | 0.00 | 90 | 1013.1 |
| 20260510070043 | 61 | 196 | 0.0 | 0.0 | 0.00 | 0.00 | 0.00 | 90 | 1013.1 |
| 20260510064529 | 61 | 178 | 0.0 | 2.6 | 0.00 | 0.00 | 0.00 | 90 | 1013.1 |
| 20260510063035 | 61 | 152 | 0.9 | 2.6 | 0.00 | 0.00 | 0.00 | 90 | 1013.2 |
| 20260510061528 | 61 | 271 | 0.0 | 0.0 | 0.00 | 0.00 | 0.00 | 90 | 1013.2 |
| 20260510060037 | 61 | 271 | 0.0 | 2.6 | 0.00 | 0.00 | 0.00 | 90 | 1013.2 |
| 20260510054528 | 61 | 272 | 0.0 | 2.6 | 0.00 | 0.00 | 0.00 | 90 | 1013.2 |
| 20260510053027 | 61 | 273 | 0.0 | 2.6 | 0.00 | 0.00 | 0.00 | 90 | 1013.2 |
| 20260510051527 | 61 | 273 | 0.0 | 5.2 | 0.00 | 0.00 | 0.00 | 90 | 1013.2 |
| 20260510050026 | 61 | 245 | 2.6 | 7.8 | 0.00 | 0.00 | 0.00 | 92 | 1013.2 |
| 20260510044526 | 61 | 277 | 2.6 | 6.1 | 0.00 | 0.00 | 0.00 | 90 | 1013.2 |
| 20260510043026 | 61 | 249 | 1.7 | 7.0 | 0.00 | 0.00 | 0.00 | 91 | 1013.1 |
| 20260510041527 | 61 | 259 | 0.0 | 7.0 | 0.00 | 0.00 | 0.00 | 91 | 1013.0 |
| 20260510040024 | 61 | 248 | 1.7 | 7.0 | 0.00 | 0.00 | 0.00 | 90 | 1012.8 |
| 20260510034524 | 61 | 225 | 3.5 | 8.7 | 0.00 | 0.00 | 0.00 | 90 | 1012.7 |
| 20260510033027 | 62 | 233 | 3.5 | 8.7 | 0.00 | 0.00 | 0.00 | 90 | 1012.4 |
| 20260510031525 | 62 | 266 | 6.1 | 9.6 | 0.00 | 0.00 | 0.00 | 89 | 1012.2 |
| 20260510030022 | 62 | 250 | 3.5 | 10.4 | 0.00 | 0.00 | 0.00 | 89 | 1012.1 |
| 20260510024522 | 63 | 242 | 3.5 | 7.8 | 0.00 | 0.00 | 0.00 | 88 | 1011.9 |
| 20260510023021 | 63 | 221 | 3.5 | 9.6 | 0.00 | 0.00 | 0.00 | 87 | 1011.9 |
| 20260510021546 | 64 | 286 | 3.5 | 8.7 | 0.00 | 0.00 | 0.00 | 87 | 1011.7 |
| 20260510020019 | 64 | 265 | 4.3 | 9.6 | 0.00 | 0.00 | 0.00 | 86 | 1011.7 |
| 20260510014531 | 65 | 213 | 3.5 | 7.0 | 0.00 | 0.00 | 0.00 | 85 | 1011.5 |
| 20260510013018 | 66 | 229 | 3.5 | 7.8 | 0.00 | 0.00 | 0.00 | 83 | 1011.5 |
| 20260510011518 | 67 | 233 | 2.6 | 10.4 | 0.00 | 0.00 | 0.00 | 81 | 1011.4 |
| 20260510010024 | 68 | 232 | 4.3 | 11.3 | 0.00 | 0.00 | 0.00 | 81 | 1011.3 |
| 20260510004514 | 68 | 273 | 5.2 | 13.0 | 0.00 | 0.00 | 0.00 | 80 | 1011.3 |
| 20260510003013 | 69 | 219 | 4.3 | 9.6 | 0.00 | 0.00 | 0.00 | 79 | 1011.4 |
| 20260510001512 | 70 | 240 | 4.3 | 9.6 | 0.00 | 0.00 | 0.00 | 78 | 1011.3 |
| 20260510000011 | 70 | 244 | 3.5 | 10.4 | 0.00 | 0.00 | 0.00 | 78 | 1011.4 |
| 20260509234511 | 70 | 198 | 5.2 | 13.0 | 0.00 | 0.00 | 0.00 | 78 | 1011.4 |
| 20260509233011 | 71 | 263 | 3.5 | 8.7 | 0.00 | 0.00 | 0.00 | 77 | 1011.6 |
| 20260509231510 | 71 | 290 | 3.5 | 7.0 | 0.00 | 0.00 | 0.00 | 77 | 1011.5 |
| 20260509230021 | 71 | 214 | 4.3 | 8.7 | 0.00 | 0.00 | 0.00 | 77 | 1011.5 |
| 20260509224507 | 70 | 271 | 4.3 | 11.3 | 0.00 | 0.00 | 0.00 | 77 | 1011.6 |
| 20260509223005 | 70 | 263 | 6.1 | 11.3 | 0.00 | 0.00 | 0.00 | 76 | 1011.9 |
| 20260509221503 | 71 | 267 | 7.0 | 13.0 | 0.00 | 0.00 | 0.00 | 75 | 1012.0 |
| 20260509220002 | 71 | 246 | 4.3 | 12.2 | 0.00 | 0.00 | 0.00 | 76 | 1012.2 |
| 20260509214600 | 71 | 231 | 1.7 | 12.2 | 0.00 | 0.00 | 0.00 | 76 | 1012.3 |
| 20260509213114 | 71 | 225 | 4.3 | 11.3 | 0.00 | 0.00 | 0.00 | 75 | 1012.4 |
| 20260509211603 | 72 | 193 | 1.7 | 9.6 | 0.00 | 0.00 | 0.00 | 75 | 1012.5 |
| 20260509210055 | 71 | 200 | 3.5 | 8.7 | 0.00 | 0.00 | 0.00 | 75 | 1012.6 |
| 20260509204554 | 71 | 197 | 4.3 | 8.7 | 0.00 | 0.00 | 0.00 | 75 | 1012.7 |
| 20260509203051 | 71 | 230 | 3.5 | 7.8 | 0.00 | 0.00 | 0.00 | 76 | 1012.8 |
| 20260509201553 | 71 | 223 | 4.3 | 8.7 | 0.00 | 0.00 | 0.00 | 76 | 1013.0 |
| 20260509200054 | 71 | 225 | 4.3 | 8.7 | 0.00 | 0.00 | 0.00 | 76 | 1013.1 |
| 20260509194557 | 71 | 227 | 3.5 | 9.6 | 0.00 | 0.00 | 0.00 | 77 | 1013.2 |
| 20260509193050 | 71 | 263 | 5.2 | 11.3 | 0.00 | 0.00 | 0.00 | 76 | 1013.4 |
| 20260509191600 | 71 | 262 | 2.6 | 9.6 | 0.00 | 0.00 | 0.00 | 77 | 1013.5 |
| 20260509190048 | 71 | 218 | 3.5 | 7.8 | 0.00 | 0.00 | 0.00 | 77 | 1013.6 |
| 20260509184544 | 71 | 277 | 5.2 | 10.4 | 0.00 | 0.00 | 0.00 | 78 | 1013.7 |
| 20260509183041 | 70 | 224 | 2.6 | 7.0 | 0.00 | 0.00 | 0.00 | 79 | 1013.7 |
| 20260509181538 | 69 | 239 | 2.6 | 7.8 | 0.00 | 0.00 | 0.00 | 81 | 1013.7 |
| 20260509180048 | 67 | 232 | 3.5 | 7.0 | 0.00 | 0.00 | 0.00 | 82 | 1013.8 |
| 20260509174534 | 67 | 203 | 2.6 | 6.1 | 0.00 | 0.00 | 0.00 | 83 | 1013.8 |
| 20260509173036 | 66 | 196 | 1.7 | 7.0 | 0.00 | 0.00 | 0.00 | 84 | 1013.7 |
| 20260509171534 | 66 | 233 | 1.7 | 6.1 | 0.00 | 0.00 | 0.00 | 85 | 1013.7 |
| 20260509170026 | 66 | 159 | 2.6 | 6.1 | 0.00 | 0.00 | 0.00 | 85 | 1013.6 |
| 20260509164525 | 65 | 205 | 0.9 | 3.5 | 0.00 | 0.00 | 0.00 | 85 | 1013.5 |
| 20260509163024 | 65 | 144 | 0.0 | 0.0 | 0.00 | 0.00 | 0.00 | 85 | 1013.6 |
| 20260509161520 | 64 | 133 | 0.9 | 3.5 | 0.00 | 0.00 | 0.00 | 85 | 1013.6 |
| 20260509160019 | 64 | 111 | 0.0 | 4.3 | 0.00 | 0.00 | 0.00 | 86 | 1013.7 |
| 20260509154518 | 64 | 130 | 1.7 | 7.0 | 0.00 | 0.00 | 0.00 | 87 | 1013.6 |
| 20260509153029 | 63 | 150 | 0.0 | 0.0 | 0.00 | 0.00 | 0.00 | 87 | 1013.7 |
| 20260509151514 | 63 | 157 | 0.0 | 0.9 | 0.00 | 0.00 | 0.00 | 88 | 1013.7 |
| 20260509150018 | 63 | 199 | 0.0 | 0.0 | 0.00 | 0.00 | 0.00 | 89 | 1013.7 |
| 20260509144512 | 63 | 205 | 0.0 | 2.6 | 0.00 | 0.00 | 0.00 | 89 | 1013.7 |
| 20260509143011 | 62 | 26 | 0.0 | 0.9 | 0.00 | 0.00 | 0.00 | 90 | 1013.6 |
| 20260509141509 | 62 | 263 | 0.0 | 0.9 | 0.00 | 0.00 | 0.00 | 90 | 1013.5 |
| 20260509140008 | 62 | 268 | 0.0 | 0.0 | 0.00 | 0.00 | 0.00 | 90 | 1013.5 |
| 20260509134507 | 62 | 268 | 0.0 | 0.9 | 0.00 | 0.00 | 0.00 | 91 | 1013.5 |
| 20260509133007 | 62 | 264 | 1.7 | 3.5 | 0.00 | 0.00 | 0.00 | 91 | 1013.3 |
| 20260509131506 | 61 | 260 | 0.0 | 3.5 | 0.00 | 0.00 | 0.00 | 91 | 1013.1 |
| 20260509130006 | 61 | 250 | 0.0 | 0.0 | 0.00 | 0.00 | 0.00 | 91 | 1013.0 |
| 20260509124505 | 61 | 250 | 0.0 | 0.0 | 0.00 | 0.00 | 0.00 | 91 | 1012.9 |
| 20260509123004 | 61 | 250 | 0.0 | 0.0 | 0.00 | 0.00 | 0.00 | 91 | 1013.0 |
| 20260509121503 | 61 | 250 | 0.0 | 0.0 | 0.00 | 0.00 | 0.00 | 91 | 1013.0 |
| 20260509120002 | 61 | 250 | 0.0 | 0.0 | 0.00 | 0.00 | 0.00 | 91 | 1013.2 |
| 20260509114502 | 61 | 250 | 0.0 | 0.0 | 0.00 | 0.00 | 0.00 | 91 | 1013.0 |
| 20260509113002 | 61 | 250 | 0.0 | 0.0 | 0.00 | 0.00 | 0.00 | 91 | 1013.0 |
| 20260509111501 | 61 | 250 | 0.0 | 0.0 | 0.00 | 0.00 | 0.00 | 91 | 1013.1 |
| 20260509110059 | 61 | 250 | 0.0 | 3.5 | 0.00 | 0.00 | 0.00 | 91 | 1013.1 |
| 20260509104604 | 61 | 249 | 0.9 | 2.6 | 0.00 | 0.00 | 0.00 | 91 | 1013.1 |
| 20260509103107 | 61 | 249 | 1.7 | 3.5 | 0.00 | 0.00 | 0.00 | 91 | 1013.2 |
| 20260509101618 | 61 | 242 | 1.7 | 4.3 | 0.00 | 0.00 | 0.00 | 91 | 1013.2 |
| 20260509100059 | 61 | 198 | 0.0 | 0.0 | 0.00 | 0.00 | 0.00 | 91 | 1013.3 |
| 20260509094600 | 61 | 196 | 0.0 | 3.5 | 0.00 | 0.00 | 0.00 | 91 | 1013.4 |